EW8748 Weather Reports


Display with metric or nautical units.
time (UTC)temp
F
wind
direction
speed
MPH
gust
MPH
rain 1hr
in
rain 24hr
in
rain mn
in
humidity
%
barometer
mb
20260901165517 83 261 7.0 15.0 0.00 0.00 0.00 46 1015.7
20260901165036 83 243 8.0 13.0 0.00 0.00 0.00 45 1015.6
20260901164517 84 239 9.0 17.0 0.00 0.00 0.00 45 1015.6
20260901163517 84 209 6.0 15.0 0.00 0.00 0.00 45 1015.5
20260901163035 85 243 8.0 14.0 0.00 0.00 0.00 44 1015.4
20260901162518 85 266 9.0 17.0 0.00 0.00 0.00 45 1015.4
20260901162035 85 256 9.0 14.0 0.00 0.00 0.00 45 1015.5
20260901161034 85 226 8.0 14.0 0.00 0.00 0.00 45 1015.4
20260901160515 85 234 10.0 14.0 0.00 0.00 0.00 45 1015.3
20260901155518 86 172 9.0 20.0 0.00 0.00 0.00 45 1015.3
20260901153517 86 208 10.0 15.0 0.00 0.00 0.00 45 1015.3
20260901152035 86 244 11.0 18.0 0.00 0.00 0.00 45 1015.2
20260901150515 87 183 7.0 14.0 0.00 0.00 0.00 44 1015.3
20260901150015 87 229 8.0 14.0 0.00 0.00 0.00 44 1015.3
20260901145038 87 249 11.0 20.0 0.00 0.00 0.00 43 1015.3
20260901144517 87 302 7.0 18.0 0.00 0.00 0.00 44 1015.3
20260901143035 88 253 8.0 17.0 0.00 0.00 0.00 44 1015.3
20260901141518 88 303 9.0 20.0 0.00 0.00 0.00 44 1015.3
20260901135035 88 233 8.0 18.0 0.00 0.00 0.00 44 1015.2
20260901134516 88 262 9.0 14.0 0.00 0.00 0.00 44 1015.3
20260901133516 88 217 10.0 16.0 0.00 0.00 0.00 45 1015.3
20260901132517 88 253 9.0 20.0 0.00 0.00 0.00 44 1015.4
20260901132037 89 117 10.0 17.0 0.00 0.00 0.00 44 1015.3
20260901131034 89 226 10.0 18.0 0.00 0.00 0.00 44 1015.3
20260901125516 90 237 10.0 22.0 0.00 0.00 0.00 41 1015.3
20260901124038 90 292 5.0 16.0 0.00 0.00 0.00 38 1015.5
20260901123518 90 201 7.0 18.0 0.00 0.00 0.00 38 1015.6
20260901121033 91 222 8.0 13.0 0.00 0.00 0.00 36 1015.7
20260901120515 90 252 6.0 13.0 0.00 0.00 0.00 37 1015.8
20260901120015 91 237 9.0 14.0 0.00 0.00 0.00 36 1015.8
20260901115517 91 275 9.0 13.0 0.00 0.00 0.00 35 1015.9
20260901114038 91 256 6.0 10.0 0.00 0.00 0.00 31 1015.9
20260901113034 90 87 1.0 8.0 0.00 0.00 0.00 31 1015.9
20260901112036 90 115 3.0 8.0 0.00 0.00 0.00 31 1015.9
20260901104516 88 58 2.0 8.0 0.00 0.00 0.00 33 1016.2
20260901103038 88 148 5.0 9.0 0.00 0.00 0.00 34 1016.2
20260901102518 88 16 4.0 12.0 0.00 0.00 0.00 34 1016.1
20260901102035 88 108 2.0 7.0 0.00 0.00 0.00 33 1016.2
20260901101033 87 98 5.0 9.0 0.00 0.00 0.00 37 1016.1
20260901095518 87 58 3.0 7.0 0.00 0.00 0.00 38 1016.2
20260901095040 87 114 3.0 8.0 0.00 0.00 0.00 39 1016.2
20260901094516 86 97 4.0 9.0 0.00 0.00 0.00 40 1016.2
20260901094037 86 79 6.0 9.0 0.00 0.00 0.00 41 1016.2
20260901093518 86 104 4.0 9.0 0.00 0.00 0.00 41 1016.2
20260901093038 85 74 3.0 9.0 0.00 0.00 0.00 42 1016.2
20260901092519 86 112 4.0 7.0 0.00 0.00 0.00 41 1016.3
20260901090515 85 139 3.0 8.0 0.00 0.00 0.00 43 1016.3
20260901090014 84 204 4.0 12.0 0.00 0.00 0.00 44 1016.3
20260901084518 84 172 3.0 9.0 0.00 0.00 0.00 45 1016.3
20260901084038 85 43 4.0 8.0 0.00 0.00 0.00 44 1016.3
20260901083516 84 68 5.0 8.0 0.00 0.00 0.00 45 1016.2
20260901083035 84 227 3.0 9.0 0.00 0.00 0.00 45 1016.2
20260901082517 84 349 3.0 5.0 0.00 0.00 0.00 44 1016.1
20260901081516 84 72 4.0 8.0 0.00 0.00 0.00 45 1016.1
20260901080514 84 32 5.0 9.0 0.00 0.00 0.00 44 1016.0
20260901080016 83 52 3.0 10.0 0.00 0.00 0.00 45 1016.0
20260901073520 82 69 5.0 9.0 0.00 0.00 0.00 45 1015.7
20260901073036 82 54 5.0 9.0 0.00 0.00 0.00 45 1015.6
20260901072517 82 64 5.0 10.0 0.00 0.00 0.00 46 1015.6
20260901071517 82 71 6.0 10.0 0.00 0.00 0.00 46 1015.4
20260901071034 82 29 4.0 10.0 0.00 0.00 0.00 44 1015.4
20260901070014 81 76 5.0 13.0 0.00 0.00 0.00 43 1015.4
20260901065516 81 129 3.0 8.0 0.00 0.00 0.00 47 1015.4
20260901065038 80 268 6.0 12.0 0.00 0.00 0.00 46 1015.4
20260901064037 77 142 5.0 8.0 0.00 0.00 0.00 57 1015.1
20260901063516 78 95 4.0 8.0 0.00 0.00 0.00 56 1015.3
20260901062516 78 128 2.0 9.0 0.00 0.00 0.00 53 1015.2
20260901062038 77 169 2.0 7.0 0.00 0.00 0.00 55 1015.1
20260901061516 77 180 3.0 7.0 0.00 0.00 0.00 55 1015.1
20260901060514 76 141 3.0 5.0 0.00 0.00 0.00 55 1015.0
20260901055039 79 40 5.0 9.0 0.00 0.00 0.00 45 1014.9
20260901054516 78 64 5.0 12.0 0.00 0.00 0.00 47 1014.9
20260901054038 78 102 3.0 7.0 0.00 0.00 0.00 48 1014.8
20260901052519 77 64 4.0 7.0 0.00 0.00 0.00 52 1014.8
20260901051516 76 11 6.0 12.0 0.00 0.00 0.00 52 1014.9
20260901050515 76 131 3.0 8.0 0.00 0.00 0.00 51 1014.9
20260901044036 75 98 2.0 3.0 0.00 0.00 0.00 54 1014.6
20260901042033 74 117 4.0 8.0 0.00 0.00 0.00 54 1014.5
20260901041034 75 89 2.0 3.0 0.00 0.00 0.00 53 1014.6
20260901040516 75 314 2.0 3.0 0.00 0.00 0.00 53 1014.6
20260901040014 75 326 2.0 5.0 0.00 0.00 0.00 53 1014.6
20260901035515 75 87 3.0 6.0 0.00 0.00 0.00 53 1014.5
20260901035025 76 98 3.0 9.0 0.00 0.00 0.00 52 1014.4
20260901034025 76 99 1.0 3.0 0.00 0.00 0.00 48 1014.3
20260901033026 76 29 5.0 13.0 0.00 0.00 0.00 48 1014.3
20260901032515 76 42 3.0 9.0 0.00 0.00 0.00 47 1014.3
20260901032033 76 67 5.0 9.0 0.00 0.00 0.00 47 1014.3
20260901031515 76 73 5.0 12.0 0.00 0.00 0.00 46 1014.3
20260901031023 76 64 5.0 10.0 0.00 0.00 0.00 45 1014.3
20260901030016 77 91 5.0 10.0 0.00 0.00 0.00 43 1014.3
20260901025024 76 60 5.0 8.0 0.00 0.00 0.00 43 1014.4
20260901024025 76 83 3.0 9.0 0.00 0.00 0.00 43 1014.2
20260901022515 75 4 3.0 5.0 0.00 0.00 0.00 44 1014.2
20260901021024 75 246 2.0 3.0 0.00 0.00 0.00 44 1014.2
20260901020514 75 339 2.0 7.0 0.00 0.00 0.00 42 1014.0
20260901015515 72 64 3.0 8.0 0.00 0.00 0.00 55 1014.0
20260901015024 71 54 2.0 8.0 0.00 0.00 0.00 64 1014.3
20260901012025 70 348 0.0 2.0 0.00 0.00 0.00 70 1014.8
20260901010013 71 329 1.0 3.0 0.00 0.00 0.00 69 1014.8
20260901005024 72 291 1.0 3.0 0.00 0.00 0.00 68 1014.9
20260901004516 73 307 2.0 3.0 0.00 0.00 0.00 66 1015.0
20260901003024 73 258 3.0 6.0 0.00 0.00 0.00 66 1015.0
20260901001515 73 255 3.0 9.0 0.00 0.00 0.00 64 1015.0
20260831232515 73 318 4.0 10.0 0.00 0.00 0.00 65 1015.3
20260831231515 73 280 6.0 12.0 0.00 0.00 0.00 64 1015.3
20260831225024 72 299 5.0 10.0 0.00 0.00 0.00 69 1015.4
20260831224514 72 299 5.0 8.0 0.00 0.00 0.00 69 1015.4
20260831224024 72 275 3.0 6.0 0.00 0.00 0.00 69 1015.4
20260831223516 73 262 3.0 8.0 0.00 0.00 0.00 67 1015.2
20260831223024 74 283 6.0 8.0 0.00 0.00 0.00 66 1015.0
20260831222514 74 285 3.0 6.0 0.00 0.00 0.00 65 1014.7
20260831222024 75 291 3.0 6.0 0.00 0.00 0.00 65 1014.7
20260831221515 75 299 1.0 3.0 0.00 0.00 0.00 65 1014.6
20260831221026 75 274 1.0 3.0 0.00 0.00 0.00 66 1014.7
20260831220017 76 324 2.0 3.0 0.00 0.00 0.00 65 1014.7
20260831215025 76 284 1.0 3.0 0.00 0.00 0.00 65 1014.7
20260831214514 76 273 2.0 3.0 0.00 0.00 0.00 65 1014.7
20260831213024 76 274 1.0 3.0 0.00 0.00 0.00 65 1014.7
20260831212024 76 270 2.0 6.0 0.00 0.00 0.00 65 1014.7
20260831210515 77 332 2.0 3.0 0.00 0.00 0.00 65 1014.9
20260831210015 77 274 2.0 3.0 0.00 0.00 0.00 65 1014.9
20260831205515 78 268 2.0 3.0 0.00 0.00 0.00 63 1014.8
20260831204515 78 297 0.0 1.0 0.00 0.00 0.00 63 1014.7
20260831204024 78 297 0.0 2.0 0.00 0.00 0.00 63 1014.7
20260831200015 79 112 3.0 6.0 0.00 0.00 0.00 63 1014.7
20260831195514 79 81 2.0 5.0 0.00 0.00 0.00 63 1014.7
20260831195025 78 87 1.0 3.0 0.00 0.00 0.00 64 1014.6
20260831194515 79 103 3.0 5.0 0.00 0.00 0.00 64 1014.5
20260831193515 79 93 2.0 7.0 0.00 0.00 0.00 64 1014.5
20260831192024 79 42 5.0 8.0 0.00 0.00 0.00 65 1014.3
20260831190514 79 83 2.0 5.0 0.00 0.00 0.00 67 1014.3
20260831190015 79 64 3.0 5.0 0.00 0.00 0.00 66 1014.3
20260831185514 79 87 4.0 8.0 0.00 0.00 0.00 66 1014.2
20260831185025 79 39 4.0 9.0 0.00 0.00 0.00 66 1014.1
20260831183514 80 60 5.0 9.0 0.00 0.00 0.00 67 1014.0
20260831183025 80 59 5.0 8.0 0.00 0.00 0.00 66 1014.0
20260831182024 80 62 5.0 10.0 0.00 0.00 0.00 65 1013.9
20260831180515 80 63 5.0 9.0 0.00 0.00 0.00 66 1013.7
20260831174517 82 60 3.0 8.0 0.00 0.00 0.00 65 1013.7
20260831173516 82 53 2.0 7.0 0.00 0.00 0.00 63 1013.6
20260831173035 82 67 5.0 12.0 0.00 0.00 0.00 63 1013.6
20260831172038 83 47 7.0 14.0 0.00 0.00 0.00 63 1013.4